Regional Weather Roundup
Issued by NWS Kansas City/Pleasant Hill, MO

Home | Current Version | Previous Version | Graphics & Text | Print | Product List | Glossary Off
Versions: 1 2 3 4 5 6 7 8 9 10 11 12 13 14 15 16 17 18 19 20 21 22 23 24 25 26 27 28 29 30 31 32 33 34 35 36 37 38 39 40 41 42 43 44 45 46 47 48 49 50

000
ASUS43 KEAX 281310
RWREAX

WEATHER ROUNDUP FOR EASTERN KANSAS AND NORTHWEST MISSOURI
NATIONAL WEATHER SERVICE KANSAS CITY/PLEASANT HILL MO
800 AM CDT MON JUL 28 2014

KSZ040-057-103>105-MOZ028-029-037-043-281400-
...KANSAS CITY METROPOLITAN AREA...

CITY           SKY/WX    TMP DP  RH WIND       PRES   REMARKS
K.C. INTL      MOSUNNY   64  58  80 N8        30.20R
K.C. DOWNTOWN  SUNNY     67  58  72 N7        30.19R
LEES SUMMIT    SUNNY     65  58  78 N9        30.20R
OLATHE - IXD   SUNNY     63  59  87 N10       30.21R
OLATHE - OJC   SUNNY     65  58  78 N8        30.20R
LAWRENCE       SUNNY     64  59  83 NW8       30.22R

$$

MOZ001>008-011>017-020>025-030>033-038>040-044>046-053-054-281400-
...NORTHERN AND CENTRAL MISSOURI...

CITY           SKY/WX    TMP DP  RH WIND       PRES   REMARKS
ST. JOSEPH     SUNNY     63  59  87 N7        30.21R
MOSBY          SUNNY     63  57  82 N8        30.19R
WHITEMAN AFB   SUNNY     64  50  59 NW12      30.17R
CLINTON        SUNNY     64  61  88 CALM      30.18R
SEDALIA        SUNNY     65  58  78 NW7       30.17R
WARSAW         NOT AVBL
MARSHALL       SUNNY     66  61  82 N8        30.17R
CHILLICOTHE      N/A     65  58  78 VRB6      30.19R
MOBERLY        SUNNY     66  59  77 N8        30.15R
KIRKSVILLE     CLOUDY    64  60  87 N10       30.16R

$$

MOZ041-047>049-056>058-063>065-088>090-097-281400-
...EASTERN AND SOUTHERN MISSOURI...

CITY           SKY/WX    TMP DP  RH WIND       PRES   REMARKS
ST. LOUIS INTL MOSUNNY   70  61  73 NW12      30.08R
SPIRIT OF STL  MOSUNNY   68  60  75 NW8       30.08R
COLUMBIA       SUNNY     66  60  81 N13       30.13R
JEFFERSON CITY SUNNY     67  59  75 NW7       30.12R
MEXICO         SUNNY     66  64  94 NW9       30.13R
HANNIBAL       PTSUNNY   66  61  82 N7        30.13R
ROLLA          SUNNY     64  57  78 NW9       30.11R
LEBANON        SUNNY     66  59  77 NW7       30.17R
OSAGE BEACH    SUNNY     66  55  68 N6        30.15R
SPRINGFIELD    SUNNY     68  58  70 N7        30.17R
BRANSON        MOSUNNY   68  57  68 NW5       30.18R
NEVADA         SUNNY     66  61  82 NW5       30.20R
JOPLIN         MOSUNNY   67  60  78 N6        30.19R
WEST PLAINS    SUNNY     67  58  72 NW8       30.15R

$$

IAZ060-094-KSZ022-034>040-054-083-096-NEZ052-066-093-281400-
...KANSAS...SOUTHEAST NEBRASKA AND IOWA...

CITY           SKY/WX    TMP DP  RH WIND       PRES   REMARKS
TOPEKA         SUNNY     67  58  72 N7        30.23R
MANHATTAN      MOSUNNY   65  58  78 NE6       30.25R
EMPORIA        MOSUNNY   66  58  75 N8        30.23R
CHANUTE        MOSUNNY   66  59  78 N6        30.21R
WICHITA        MOSUNNY   70  58  65 NE6       30.24R
OMAHA          MOSUNNY   60  56  86 N5        30.25R
LINCOLN        SUNNY     63  55  75 N8        30.28R
FALLS CITY     SUNNY     62  57  83 N6        30.23
LAMONI         PTSUNNY   62  59  90 N8        30.19R
DES MOINES     MOSUNNY   65  57  75 NE9       30.18R

$$




USA.gov is the U.S. government's official web portal to all federal, state and local government web resources and services.